Lid_Strength_Index
2 1 1 2 1 2 2 5 10 2 1 9 8 11 8 6 6 5 6 6 7 8 8 9 9 9 8 7 6 9 6 8 11 9 6 6 7 8 8 13 13 12 13 12
2 2 2 1 2 2 4 8 7 1 2 12 11 7 8 7 7 6 6 7 7 7 8 9 8 8 6 6 7 7 6 9 13 11 8 7 8 8 8 8 9 14 16 12
2 2 2 1 1 1 4 8 11 7 5 5 8 9 9 9 5 6 5 6 6 7 9 7 9 8 6 6 6 6 6 8 10 13 10 8 10 8 8 8 13 12 11 10
2 2 1 1 1 1 3 8 9 7 11 10 8 7 7 9 8 6 5 7 7 8 9 8 9 8 7 6 6 6 6 11 9 8 8 8 8 9 8 9 9 12 10 9
1 0 0 -0 0 1 4 10 7 6 7 7 8 8 8 9 7 7 7 8 7 8 10 9 11 8 8 8 6 7 6 10 9 9 8 8 9 8 8 8 8 8 8 9
0 0 0 -0 -0 1 6 5 3 5 7 8 9 9 8 8 6 6 5 6 7 8 8 6 6 6 7 7 8 8 8 10 11 13 9 9 12 9 8 8 7 7 9 7
1 0 0 -0 -0 0 4 3 3 7 10 9 8 7 6 7 6 7 5 5 6 5 3 4 5 7 7 7 7 6 9 10 11 13 13 18 9 6 6 7 7 6 6 6
1 0 0 0 -0 -0 3 1 3 6 10 8 7 7 7 6 5 6 6 5 4 3 5 8 10 11 10 10 9 7 7 10 12 15 14 10 9 7 7 8 8 6 6 5
0 0 0 0 -0 -0 2 1 1 4 8 8 5 7 6 7 7 7 6 4 3 4 7 9 12 13 13 14 11 7 7 9 12 13 15 17 9 6 5 5 11 5 5 5
0 0 0 0 0 0 2 1 0 3 7 5 5 7 7 5 6 8 7 7 7 4 10 13 12 12 10 13 16 14 13 12 15 14 14 11 7 5 5 12 10 5 5 5
0 0 0 1 1 1 2 2 -0 3 6 5 4 4 5 5 5 8 6 8 8 8 11 10 10 12 10 10 10 12 13 14 14 13 15 16 5 6 9 6 4 4 4 4
0 0 1 1 1 1 1 3 0 -0 4 5 2 2 2 2 2 5 5 6 7 6 8 8 7 11 11 9 13 8 13 10 11 10 10 6 5 5 4 4 4 4 4 4
0 1 1 1 1 1 1 2 1 2 5 4 4 4 2 1 1 1 6 5 4 5 3 6 8 11 9 13 11 9 8 6 9 9 7 6 5 4 3 3 4 3 3 3
0 0 1 1 2 1 1 1 1 2 4 8 6 1 3 1 1 1 2 3 3 3 4 6 8 10 6 10 9 10 8 7 8 8 6 6 5 4 4 4 3 3 3 3
1 1 1 1 1 1 1 1 0 0 4 7 6 3 2 1 1 2 2 3 4 5 7 8 9 6 7 7 8 9 6 8 10 10 6 6 6 4 3 4 4 4 4 4
1 1 1 1 1 1 2 6 1 1 -0 4 9 3 4 2 2 3 3 3 4 4 6 7 6 4 6 11 11 7 5 5 5 7 5 5 4 4 3 4 3 3 3 3
2 2 2 2 2 2 4 4 2 1 -0 4 8 8 4 3 3 4 4 3 4 5 6 7 7 6 6 9 12 7 5 5 4 4 5 6 5 5 4 3 3 4 3 3
2 2 2 2 2 2 2 1 1 0 2 4 10 10 9 4 8 8 4 6 5 6 7 6 7 6 7 10 7 6 5 5 5 5 4 5 5 5 5 5 5 5 5 4
3 3 2 3 3 5 3 2 1 -0 3 9 10 11 13 5 7 7 6 5 9 5 8 8 7 9 11 8 7 7 6 6 6 5 6 6 6 6 7 7 6 6 6 6
3 2 5 7 4 2 2 3 5 5 5 7 10 8 11 7 8 9 9 8 10 12 9 6 9 10 7 7 7 6 6 6 6 6 7 7 7 7 8 7 7 7 8 7
3 4 6 3 2 4 5 7 8 8 10 7 8 8 10 6 10 11 10 12 10 14 12 11 11 11 11 10 9 7 6 6 6 6 6 6 6 7 8 8 8 8 8 9
3 3 2 2 7 7 9 10 9 9 10 7 8 7 7 8 6 9 9 12 12 15 9 13 14 14 13 12 11 10 10 9 7 7 7 7 8 7 8 9 12 13 14 14
1 4 6 7 7 12 13 14 12 11 9 8 8 10 6 6 6 9 10 14 13 12 14 16 15 13 13 13 13 13 12 11 11 12 12 13 14 13 14 15 15 15 16 16
6 9 11 11 12 10 11 12 10 10 10 9 9 9 9 10 11 12 13 13 12 14 15 17 15 14 14 14 14 15 16 15 15 15 15 15 15 16 15 15 15 15 16 16
10 10 14 12 11 10 11 11 11 10 11 12 11 10 11 12 12 12 12 13 16 16 17 16 14 14 14 14 15 15 16 16 16 16 17 17 17 17 17 16 16 16 17 18
11 14 15 14 13 13 13 13 12 12 13 11 11 12 12 14 13 16 16 17 19 18 16 15 14 15 15 15 15 15 15 16 16 16 17 17 18 18 18 18 17 17 17 17
13 15 15 16 16 15 14 12 11 11 11 12 12 16 16 12 16 18 17 20 18 17 16 16 16 16 16 15 15 15 15 16 16 16 16 17 16 16 17 18 18 17 18 18